Total_Precipitation_Accumulation
1.62 1.61 2.54 3.76 4.45 3.59 3.16 2.95 2.49 2.16 1.65 1.30 1.05 1.08 1.52 1.94 2.19 2.55 2.59 2.61 1.71 1.50 1.78 2.37 3.03 2.91 2.69 2.63 2.69 2.62 2.41 2.11 1.93 1.89 1.93 1.96 1.91 1.92 1.93 1.93 1.90 1.96 1.92 1.82 1.98 2.24 2.26 2.19 2.16
1.26 2.00 3.15 4.31 3.96 3.10 3.16 2.84 2.43 1.99 1.44 1.06 0.86 0.85 0.96 0.94 0.87 1.42 2.63 2.79 1.68 1.35 1.54 1.84 2.74 2.72 2.67 2.65 2.46 2.41 2.17 1.89 1.76 1.73 1.73 1.75 1.88 2.10 2.20 2.13 2.06 2.07 1.87 1.70 1.74 2.12 2.27 2.22 2.08
1.72 2.70 3.77 4.05 3.10 2.87 3.15 2.81 2.26 1.49 1.08 0.95 0.89 0.79 0.88 1.13 1.17 1.76 2.53 2.07 1.53 1.36 1.58 2.24 2.82 2.60 2.54 2.44 2.26 2.25 2.12 1.89 1.77 1.74 1.71 1.75 2.01 2.19 2.18 2.20 2.16 2.09 1.91 1.82 1.92 2.28 2.19 2.14 2.03
2.21 3.23 3.65 3.31 2.71 2.41 2.43 2.35 1.96 1.47 1.10 0.78 0.79 0.90 0.87 1.24 1.43 1.74 1.89 1.51 1.36 1.38 1.57 2.21 2.56 2.31 2.21 2.17 2.12 2.02 2.06 2.08 1.86 1.70 1.74 1.93 2.28 2.32 2.32 2.34 2.11 2.08 1.99 2.02 2.14 2.32 2.30 2.21 2.15
2.64 3.32 3.35 3.09 2.72 2.42 2.02 1.84 1.76 1.64 1.29 0.92 0.87 1.06 1.34 1.84 1.73 1.59 1.56 1.37 1.23 1.20 1.31 1.75 2.23 2.07 1.98 1.98 1.97 1.87 1.96 2.09 1.97 1.74 1.85 2.10 2.41 2.44 2.40 2.28 2.08 2.08 2.08 2.16 2.38 2.41 2.43 2.33 2.17
3.13 3.06 3.18 3.12 2.92 2.58 2.15 1.60 1.47 1.50 1.21 0.99 0.97 1.14 1.77 2.23 2.04 1.88 1.58 1.58 1.38 1.23 1.18 1.36 1.83 1.93 1.80 1.83 1.98 1.89 1.88 1.99 1.94 1.86 1.89 2.03 2.37 2.35 2.34 2.24 2.08 2.01 2.10 2.37 2.70 2.63 2.51 2.31 2.21
3.03 2.92 2.93 2.57 2.66 2.91 2.28 1.41 1.46 1.47 1.36 1.14 0.89 1.15 1.67 2.01 1.85 1.75 1.55 1.55 1.58 1.51 1.38 1.26 1.32 1.50 1.63 1.76 1.91 1.90 1.85 1.83 1.77 1.87 1.91 2.12 2.45 2.31 2.16 2.15 2.09 2.06 2.16 2.30 2.53 2.45 2.34 2.30 2.29
2.42 2.53 2.49 2.47 2.67 2.86 2.06 1.26 1.15 1.35 1.31 0.91 0.95 1.28 1.53 1.51 1.44 1.45 1.50 1.66 1.65 1.59 1.46 1.25 1.15 1.19 1.36 1.41 1.60 1.84 1.90 1.82 1.71 1.79 1.93 2.10 2.32 2.28 2.15 2.06 2.20 2.29 2.27 2.39 2.55 2.42 2.26 2.27 2.19
2.03 2.54 2.82 2.85 2.73 2.43 1.63 1.31 1.09 0.97 0.98 0.90 0.90 1.01 1.10 1.00 1.10 1.26 1.28 1.33 1.45 1.37 1.27 1.17 1.12 1.17 1.29 1.35 1.40 1.73 1.81 1.71 1.55 1.55 1.81 1.85 1.81 1.90 2.12 2.22 2.53 2.51 2.50 2.57 2.65 2.61 2.37 2.12 2.04
2.10 2.55 2.59 2.08 1.67 1.62 1.38 1.23 1.12 1.18 1.25 1.06 1.01 1.03 1.05 1.03 1.09 1.11 1.11 1.13 1.15 1.09 0.98 0.94 0.94 1.03 1.15 1.21 1.59 1.88 1.68 1.61 1.39 1.43 1.47 1.58 1.68 1.93 1.95 2.25 2.68 2.59 2.51 2.46 2.59 2.58 2.18 1.69 1.41
1.73 2.14 1.80 1.53 1.26 1.07 1.13 1.12 0.90 1.10 1.33 1.11 1.06 1.03 1.05 1.14 1.10 1.08 1.06 0.97 0.92 0.83 0.76 0.73 0.67 0.68 0.76 1.01 1.37 1.70 1.85 1.86 1.84 1.67 1.52 1.61 1.39 1.36 1.39 1.52 1.74 1.82 1.87 1.80 1.90 2.00 1.70 1.43 1.34
1.64 1.61 1.44 1.42 1.05 1.01 1.01 0.95 0.91 0.97 1.09 0.97 1.03 0.93 0.93 1.02 1.01 0.98 1.00 0.96 0.84 0.80 0.75 0.67 0.63 0.59 0.61 0.70 0.90 1.15 1.33 1.46 1.54 1.45 1.28 1.40 1.33 1.26 1.28 1.32 1.31 1.31 1.40 1.52 1.51 1.63 1.58 1.38 1.28
1.70 1.67 1.35 1.11 0.99 0.94 0.87 0.85 0.86 0.96 0.92 0.82 0.93 0.99 1.02 1.00 1.00 1.03 1.09 1.07 0.94 0.92 0.90 0.80 0.69 0.64 0.64 0.69 0.76 0.85 1.04 1.17 1.20 1.28 1.21 1.20 1.31 1.35 1.30 1.22 1.22 1.14 1.21 1.35 1.46 1.48 1.51 1.53 1.45
1.51 1.49 1.50 1.31 1.09 1.00 0.99 0.87 0.77 0.95 0.94 0.90 1.00 1.08 1.04 1.06 0.96 0.94 0.99 1.07 1.06 1.01 0.96 0.92 0.81 0.77 0.74 0.73 0.74 0.83 0.92 0.98 1.00 1.00 1.00 1.10 1.24 1.28 1.31 1.29 1.32 1.27 1.27 1.38 1.40 1.33 1.46 1.64 1.57
1.37 1.63 1.65 1.47 1.19 1.06 1.09 1.22 0.93 0.89 0.98 1.02 1.13 1.07 0.98 0.99 0.93 0.90 0.89 0.95 1.00 0.97 0.90 0.90 0.90 0.92 0.90 0.86 0.79 0.81 0.91 0.99 0.99 0.95 0.87 0.90 1.02 1.11 1.21 1.24 1.23 1.26 1.40 1.45 1.50 1.32 1.38 1.44 1.44
1.73 2.12 2.27 1.64 1.34 1.14 1.31 1.54 1.06 1.00 1.07 1.03 1.05 1.01 0.94 0.90 0.86 0.84 0.87 0.85 0.84 0.79 0.78 0.86 0.87 0.90 0.93 0.94 0.94 0.96 0.98 1.07 1.02 1.01 0.92 0.87 0.93 1.04 1.20 1.22 1.18 1.20 1.39 1.54 1.62 1.53 1.54 1.52 1.49
2.00 2.11 1.99 1.63 1.29 1.18 1.24 1.26 0.99 0.99 1.06 0.93 0.91 0.88 0.82 0.77 0.74 0.71 0.75 0.78 0.77 0.72 0.72 0.74 0.80 0.79 0.86 0.92 0.96 1.08 1.13 1.15 1.11 1.09 1.00 0.97 1.04 1.15 1.32 1.41 1.40 1.37 1.43 1.49 1.49 1.60 1.64 1.63 1.64
1.67 1.56 1.44 1.39 1.14 1.08 1.10 0.94 0.82 0.85 0.90 0.83 0.74 0.67 0.65 0.66 0.62 0.60 0.63 0.67 0.70 0.71 0.68 0.68 0.74 0.76 0.78 0.90 1.01 1.20 1.34 1.32 1.32 1.22 1.15 1.18 1.33 1.49 1.62 1.61 1.68 1.70 1.64 1.66 1.64 1.72 1.70 1.64 1.71
1.07 1.19 1.22 1.14 0.86 0.89 0.90 0.77 0.73 0.74 0.77 0.75 0.67 0.56 0.54 0.57 0.54 0.52 0.55 0.61 0.62 0.65 0.67 0.68 0.66 0.72 0.76 0.80 0.95 1.19 1.47 1.58 1.67 1.58 1.38 1.33 1.47 1.76 2.02 1.95 2.01 2.07 2.01 1.99 1.98 2.23 2.20 1.94 1.77
1.05 1.25 1.23 1.10 0.78 0.74 0.76 0.67 0.59 0.58 0.65 0.60 0.58 0.56 0.49 0.50 0.44 0.40 0.44 0.48 0.51 0.53 0.60 0.65 0.64 0.69 0.72 0.77 0.95 1.13 1.30 1.30 1.46 1.58 1.54 1.46 1.45 1.63 1.80 2.08 2.22 2.18 2.32 2.42 2.39 2.76 2.92 2.43 2.00
1.03 1.06 1.04 1.01 0.83 0.72 0.70 0.75 0.57 0.50 0.53 0.49 0.46 0.48 0.43 0.45 0.44 0.42 0.41 0.43 0.43 0.43 0.44 0.48 0.52 0.60 0.70 0.83 1.04 1.28 1.52 1.60 1.62 1.52 1.58 1.59 1.50 1.57 1.72 1.87 2.02 2.06 2.21 2.40 2.52 2.84 3.40 3.16 2.49
0.97 0.71 0.65 0.72 0.93 1.00 0.81 1.02 0.70 0.56 0.58 0.49 0.43 0.40 0.38 0.41 0.44 0.49 0.45 0.46 0.42 0.41 0.41 0.44 0.53 0.66 0.86 1.05 1.26 1.51 1.72 1.78 1.65 1.63 1.65 1.54 1.45 1.44 1.57 1.71 1.82 1.95 2.01 2.19 2.29 2.43 3.02 3.44 3.10
0.65 0.55 0.53 0.62 0.83 0.83 0.63 0.77 0.68 0.56 0.66 0.57 0.49 0.44 0.40 0.39 0.42 0.45 0.45 0.47 0.48 0.48 0.52 0.55 0.73 0.95 1.21 1.41 1.67 1.96 1.94 1.83 1.73 1.67 1.64 1.58 1.55 1.52 1.53 1.70 1.76 1.77 1.86 2.01 2.35 2.62 2.93 3.19 3.22
0.47 0.55 0.62 0.70 0.90 0.90 0.55 0.64 0.70 0.54 0.54 0.56 0.53 0.47 0.40 0.36 0.43 0.52 0.59 0.68 0.73 0.76 0.91 1.10 1.35 1.50 1.59 1.72 1.87 1.99 1.94 1.94 1.89 1.71 1.60 1.58 1.62 1.67 1.68 1.73 1.76 1.74 1.79 1.91 2.18 2.50 2.72 3.05 3.29
0.49 0.83 1.21 1.24 1.21 0.86 0.44 0.64 0.70 0.50 0.41 0.43 0.46 0.40 0.35 0.38 0.48 0.63 0.82 0.96 1.08 1.22 1.38 1.53 1.68 1.82 1.76 1.73 1.80 1.83 1.81 1.78 1.77 1.71 1.64 1.57 1.56 1.61 1.63 1.70 1.83 1.90 1.95 2.08 2.26 2.44 2.39 2.58 3.01
0.52 0.77 1.26 1.39 1.15 0.80 0.58 0.84 0.78 0.55 0.42 0.34 0.28 0.26 0.37 0.53 0.66 0.79 0.87 1.00 1.18 1.34 1.42 1.44 1.54 1.66 1.65 1.61 1.60 1.58 1.61 1.61 1.57 1.49 1.46 1.50 1.58 1.56 1.49 1.53 1.64 1.75 1.94 2.00 2.08 2.15 2.11 2.22 2.46
0.52 0.57 0.62 0.90 0.76 0.75 0.77 0.90 0.80 0.53 0.45 0.37 0.32 0.35 0.50 0.72 0.93 1.09 1.21 1.33 1.38 1.43 1.50 1.43 1.45 1.51 1.52 1.48 1.43 1.45 1.44 1.49 1.49 1.41 1.42 1.40 1.39 1.31 1.22 1.22 1.29 1.37 1.45 1.55 1.71 1.82 1.92 1.99 2.12
0.42 0.55 0.74 1.08 1.22 1.19 1.05 1.03 0.93 0.70 0.60 0.61 0.66 0.75 0.79 0.89 1.17 1.47 1.75 1.92 1.74 1.49 1.42 1.41 1.36 1.37 1.47 1.48 1.43 1.41 1.48 1.48 1.45 1.45 1.40 1.37 1.37 1.27 1.17 1.12 1.09 1.07 1.03 1.09 1.28 1.47 1.60 1.70 1.86
0.43 0.60 0.77 1.02 1.13 1.42 1.60 1.49 1.12 1.10 1.07 1.11 1.19 1.22 1.22 1.31 1.30 1.48 1.71 1.91 1.83 1.51 1.27 1.32 1.38 1.40 1.43 1.43 1.44 1.43 1.42 1.32 1.30 1.33 1.30 1.27 1.27 1.30 1.26 1.16 1.09 1.17 1.15 1.10 1.16 1.21 1.27 1.36 1.52
0.52 0.68 0.88 1.27 1.19 1.16 1.45 1.51 1.16 1.13 1.13 1.20 1.36 1.42 1.41 1.31 1.22 1.21 1.29 1.37 1.45 1.33 1.12 1.08 1.24 1.35 1.36 1.36 1.39 1.37 1.26 1.18 1.17 1.17 1.08 0.97 0.91 0.92 1.02 1.14 1.07 1.03 1.05 1.07 1.14 1.13 1.16 1.22 1.34